Year,Month,Day,Hour,Minute,Value (Times are PST for temperature in C)
2009,08,29,00,00,17.80
2009,08,29,00,01,17.80
2009,08,29,00,02,17.80
2009,08,29,00,03,17.80
2009,08,29,00,04,17.80
2009,08,29,00,05,17.70
2009,08,29,00,06,17.70
2009,08,29,00,07,17.80
2009,08,29,00,08,17.80
2009,08,29,00,09,17.80
2009,08,29,00,10,17.80
2009,08,29,00,11,17.80
2009,08,29,00,12,17.80
2009,08,29,00,13,17.80
2009,08,29,00,14,17.80
2009,08,29,00,15,17.80
2009,08,29,00,16,17.80
2009,08,29,00,17,17.80
2009,08,29,00,18,17.80
2009,08,29,00,19,17.80
2009,08,29,00,20,17.80
2009,08,29,00,21,17.80
2009,08,29,00,22,17.80
2009,08,29,00,23,17.80
2009,08,29,00,24,17.80
2009,08,29,00,25,17.80
2009,08,29,00,26,17.80
2009,08,29,00,27,17.80
2009,08,29,00,28,17.80
2009,08,29,00,29,17.80
2009,08,29,00,30,17.80
2009,08,29,00,31,17.80
2009,08,29,00,32,17.70
2009,08,29,00,33,17.70
2009,08,29,00,34,17.60
2009,08,29,00,35,17.60
2009,08,29,00,36,17.50
2009,08,29,00,37,17.40
2009,08,29,00,38,17.40
2009,08,29,00,39,17.30
2009,08,29,00,40,17.20
2009,08,29,00,41,17.20
2009,08,29,00,42,17.10
2009,08,29,00,43,17.10
2009,08,29,00,44,17.00
2009,08,29,00,45,16.90
2009,08,29,00,46,16.80
2009,08,29,00,47,16.80
2009,08,29,00,48,16.70
2009,08,29,00,49,16.60
2009,08,29,00,50,16.60
2009,08,29,00,51,16.50
2009,08,29,00,52,16.40
2009,08,29,00,53,16.40
2009,08,29,00,54,16.40
2009,08,29,00,55,16.40
2009,08,29,00,56,16.40
2009,08,29,00,57,16.40
2009,08,29,00,58,16.40
2009,08,29,00,59,16.40
2009,08,29,01,00,16.40
2009,08,29,01,01,16.30
2009,08,29,01,02,16.30
2009,08,29,01,03,16.30
2009,08,29,01,04,16.20
2009,08,29,01,05,16.20
2009,08,29,01,06,16.10
2009,08,29,01,07,16.10
2009,08,29,01,08,16.00
2009,08,29,01,09,16.00
2009,08,29,01,10,15.90
2009,08,29,01,11,15.80
2009,08,29,01,12,15.80
2009,08,29,01,13,15.70
2009,08,29,01,14,15.70
2009,08,29,01,15,15.60
2009,08,29,01,16,15.60
2009,08,29,01,17,15.60
2009,08,29,01,18,15.60
2009,08,29,01,19,15.60
2009,08,29,01,20,15.70
2009,08,29,01,21,15.70
2009,08,29,01,22,15.80
2009,08,29,01,23,15.80
2009,08,29,01,24,15.90
2009,08,29,01,25,16.00
2009,08,29,01,26,16.00
2009,08,29,01,27,16.10
2009,08,29,01,28,16.10
2009,08,29,01,29,16.20
2009,08,29,01,30,16.20
2009,08,29,01,31,16.30
2009,08,29,01,32,16.30
2009,08,29,01,33,16.30
2009,08,29,01,34,16.30
2009,08,29,01,35,16.30
2009,08,29,01,36,16.30
2009,08,29,01,37,16.30
2009,08,29,01,38,16.30
2009,08,29,01,39,16.30
2009,08,29,01,40,16.30
2009,08,29,01,41,16.30
2009,08,29,01,42,16.30
2009,08,29,01,43,16.30
2009,08,29,01,44,16.30
2009,08,29,01,45,16.30
2009,08,29,01,46,16.30
2009,08,29,01,47,16.30
2009,08,29,01,48,16.30
2009,08,29,01,49,16.30
2009,08,29,01,50,16.30
2009,08,29,01,51,16.30
2009,08,29,01,52,16.30
2009,08,29,01,53,16.30
2009,08,29,01,54,16.40
2009,08,29,01,55,16.40
2009,08,29,01,56,16.40
2009,08,29,01,57,16.40
2009,08,29,01,58,16.50
2009,08,29,01,59,16.50
2009,08,29,02,00,16.50
2009,08,29,02,01,16.60
2009,08,29,02,02,16.60
2009,08,29,02,03,16.70
2009,08,29,02,04,16.80
2009,08,29,02,05,16.80
2009,08,29,02,06,16.90
2009,08,29,02,07,17.00
2009,08,29,02,08,17.10
2009,08,29,02,09,17.30
2009,08,29,02,10,17.30
2009,08,29,02,11,17.40
2009,08,29,02,12,17.50
2009,08,29,02,13,17.50
2009,08,29,02,14,17.60
2009,08,29,02,15,17.60
2009,08,29,02,16,17.60
2009,08,29,02,17,17.70
2009,08,29,02,18,17.70
2009,08,29,02,19,17.70
2009,08,29,02,20,17.70
2009,08,29,02,21,17.70
2009,08,29,02,22,17.70
2009,08,29,02,23,17.70
2009,08,29,02,24,17.70
2009,08,29,02,25,17.70
2009,08,29,02,26,17.70
2009,08,29,02,27,17.70
2009,08,29,02,28,17.70
2009,08,29,02,29,17.70
2009,08,29,02,30,17.70
2009,08,29,02,31,17.60
2009,08,29,02,32,17.60
2009,08,29,02,33,17.60
2009,08,29,02,34,17.60
2009,08,29,02,35,17.60
2009,08,29,02,36,17.60
2009,08,29,02,37,17.60
2009,08,29,02,38,17.50
2009,08,29,02,39,17.50
2009,08,29,02,40,17.50
2009,08,29,02,41,17.50
2009,08,29,02,42,17.50
2009,08,29,02,43,17.50
2009,08,29,02,44,17.50
2009,08,29,02,45,17.40
2009,08,29,02,46,17.40
2009,08,29,02,47,17.40
2009,08,29,02,48,17.40
2009,08,29,02,49,17.40
2009,08,29,02,50,17.40
2009,08,29,02,51,17.40
2009,08,29,02,52,17.40
2009,08,29,02,53,17.40
2009,08,29,02,54,17.30
2009,08,29,02,55,17.30
2009,08,29,02,56,17.30
2009,08,29,02,57,17.20
2009,08,29,02,58,17.20
2009,08,29,02,59,17.20
2009,08,29,03,00,17.10
2009,08,29,03,01,17.10
2009,08,29,03,02,17.00
2009,08,29,03,03,17.00
2009,08,29,03,04,16.90
2009,08,29,03,05,16.90
2009,08,29,03,06,16.80
2009,08,29,03,07,16.80
2009,08,29,03,08,16.70
2009,08,29,03,09,16.70
2009,08,29,03,10,16.70
2009,08,29,03,11,16.60
2009,08,29,03,12,16.60
2009,08,29,03,13,16.60
2009,08,29,03,14,16.60
2009,08,29,03,15,16.60
2009,08,29,03,16,16.50
2009,08,29,03,17,16.50
2009,08,29,03,18,16.50
2009,08,29,03,19,16.50
2009,08,29,03,20,16.50
2009,08,29,03,21,16.40
2009,08,29,03,22,16.40
2009,08,29,03,23,16.30
2009,08,29,03,24,16.30
2009,08,29,03,25,16.30
2009,08,29,03,26,16.20
2009,08,29,03,27,16.20
2009,08,29,03,28,16.10
2009,08,29,03,29,16.10
2009,08,29,03,30,16.00
2009,08,29,03,31,16.00
2009,08,29,03,32,16.00
2009,08,29,03,33,15.90
2009,08,29,03,34,15.90
2009,08,29,03,35,15.90
2009,08,29,03,36,15.80
2009,08,29,03,37,15.80
2009,08,29,03,38,15.80
2009,08,29,03,39,15.70
2009,08,29,03,40,15.70
2009,08,29,03,41,15.70
2009,08,29,03,42,15.70
2009,08,29,03,43,15.60
2009,08,29,03,44,15.60
2009,08,29,03,45,15.50
2009,08,29,03,46,15.50
2009,08,29,03,47,15.40
2009,08,29,03,48,15.40
2009,08,29,03,49,15.40
2009,08,29,03,50,15.40
2009,08,29,03,51,15.30
2009,08,29,03,52,15.30
2009,08,29,03,53,15.30
2009,08,29,03,54,15.30
2009,08,29,03,55,15.30
2009,08,29,03,56,15.30
2009,08,29,03,57,15.30
2009,08,29,03,58,15.30
2009,08,29,03,59,15.30
2009,08,29,04,00,15.30
2009,08,29,04,01,15.30
2009,08,29,04,02,15.30
2009,08,29,04,03,15.30
2009,08,29,04,04,15.30
2009,08,29,04,05,15.30
2009,08,29,04,06,15.30
2009,08,29,04,07,15.30
2009,08,29,04,08,15.20
2009,08,29,04,09,15.20
2009,08,29,04,10,15.20
2009,08,29,04,11,15.20
2009,08,29,04,12,15.20
2009,08,29,04,13,15.20
2009,08,29,04,14,15.20
2009,08,29,04,15,15.20
2009,08,29,04,16,15.20
2009,08,29,04,17,15.20
2009,08,29,04,18,15.20
2009,08,29,04,19,15.20
2009,08,29,04,20,15.20
2009,08,29,04,21,15.20
2009,08,29,04,22,15.20
2009,08,29,04,23,15.20
2009,08,29,04,24,15.20
2009,08,29,04,25,15.20
2009,08,29,04,26,15.20
2009,08,29,04,27,15.30
2009,08,29,04,28,15.30
2009,08,29,04,29,15.30
2009,08,29,04,30,15.30
2009,08,29,04,31,15.30
2009,08,29,04,32,15.30
2009,08,29,04,33,15.30
2009,08,29,04,34,15.30
2009,08,29,04,35,15.30
2009,08,29,04,36,15.30
2009,08,29,04,37,15.30
2009,08,29,04,38,15.30
2009,08,29,04,39,15.30
2009,08,29,04,40,15.30
2009,08,29,04,41,15.30
2009,08,29,04,42,15.30
2009,08,29,04,43,15.30
2009,08,29,04,44,15.30
2009,08,29,04,45,15.30
2009,08,29,04,46,15.30
2009,08,29,04,47,15.30
2009,08,29,04,48,15.30
2009,08,29,04,49,15.30
2009,08,29,04,50,15.30
2009,08,29,04,51,15.30
2009,08,29,04,52,15.40
2009,08,29,04,53,15.40
2009,08,29,04,54,15.40
2009,08,29,04,55,15.40
2009,08,29,04,56,15.40
2009,08,29,04,57,15.40
2009,08,29,04,58,15.40
2009,08,29,04,59,15.40
2009,08,29,05,00,15.40
2009,08,29,05,01,15.40
2009,08,29,05,02,15.40
2009,08,29,05,03,15.40
2009,08,29,05,04,15.40
2009,08,29,05,05,15.40
2009,08,29,05,06,15.40
2009,08,29,05,07,15.40
2009,08,29,05,08,15.40
2009,08,29,05,09,15.40
2009,08,29,05,10,15.40
2009,08,29,05,11,15.40
2009,08,29,05,12,15.40
2009,08,29,05,13,15.40
2009,08,29,05,14,15.40
2009,08,29,05,15,15.40
2009,08,29,05,16,15.40
2009,08,29,05,17,15.40
2009,08,29,05,18,15.50
2009,08,29,05,19,15.50
2009,08,29,05,20,15.50
2009,08,29,05,21,15.50
2009,08,29,05,22,15.50
2009,08,29,05,23,15.60
2009,08,29,05,24,15.60
2009,08,29,05,25,15.60
2009,08,29,05,26,15.60
2009,08,29,05,27,15.60
2009,08,29,05,28,15.60
2009,08,29,05,29,15.60
2009,08,29,05,30,15.60
2009,08,29,05,31,15.60
2009,08,29,05,32,15.60
2009,08,29,05,33,15.60
2009,08,29,05,34,15.60
2009,08,29,05,35,15.60
2009,08,29,05,36,15.60
2009,08,29,05,37,15.60
2009,08,29,05,38,15.60
2009,08,29,05,39,15.60
2009,08,29,05,40,15.60
2009,08,29,05,41,15.60
2009,08,29,05,42,15.50
2009,08,29,05,43,15.50
2009,08,29,05,44,15.50
2009,08,29,05,45,15.50
2009,08,29,05,46,15.50
2009,08,29,05,47,15.50
2009,08,29,05,48,15.50
2009,08,29,05,49,15.50
2009,08,29,05,50,15.50
2009,08,29,05,51,15.50
2009,08,29,05,52,15.50
2009,08,29,05,53,15.50
2009,08,29,05,54,15.50
2009,08,29,05,55,15.50
2009,08,29,05,56,15.50
2009,08,29,05,57,15.60
2009,08,29,05,58,15.60
2009,08,29,05,59,15.60
2009,08,29,06,00,15.60
2009,08,29,06,01,15.60
2009,08,29,06,02,15.60
2009,08,29,06,03,15.60
2009,08,29,06,04,15.60
2009,08,29,06,05,15.70
2009,08,29,06,06,15.70
2009,08,29,06,07,15.70
2009,08,29,06,08,15.70
2009,08,29,06,09,15.70
2009,08,29,06,10,15.70
2009,08,29,06,11,15.70
2009,08,29,06,12,15.70
2009,08,29,06,13,15.70
2009,08,29,06,14,15.70
2009,08,29,06,15,15.80
2009,08,29,06,16,15.80
2009,08,29,06,17,15.80
2009,08,29,06,18,15.80
2009,08,29,06,19,15.70
2009,08,29,06,20,15.70
2009,08,29,06,21,15.70
2009,08,29,06,22,15.70
2009,08,29,06,23,15.70
2009,08,29,06,24,15.70
2009,08,29,06,25,15.70
2009,08,29,06,26,15.70
2009,08,29,06,27,15.70
2009,08,29,06,28,15.70
2009,08,29,06,29,15.60
2009,08,29,06,30,15.60
2009,08,29,06,31,15.60
2009,08,29,06,32,15.60
2009,08,29,06,33,15.60
2009,08,29,06,34,15.60
2009,08,29,06,35,15.60
2009,08,29,06,36,15.60
2009,08,29,06,37,15.60
2009,08,29,06,38,15.60
2009,08,29,06,39,15.60
2009,08,29,06,40,15.60
2009,08,29,06,41,15.50
2009,08,29,06,42,15.50
2009,08,29,06,43,15.50
2009,08,29,06,44,15.50
2009,08,29,06,45,15.50
2009,08,29,06,46,15.50
2009,08,29,06,47,15.50
2009,08,29,06,48,15.50
2009,08,29,06,49,15.50
2009,08,29,06,50,15.50
2009,08,29,06,51,15.50
2009,08,29,06,52,15.50
2009,08,29,06,53,15.50
2009,08,29,06,54,15.50
2009,08,29,06,55,15.50
2009,08,29,06,56,15.50
2009,08,29,06,57,15.50
2009,08,29,06,58,15.50
2009,08,29,06,59,15.50
2009,08,29,07,00,15.40
2009,08,29,07,01,15.50
2009,08,29,07,02,15.50
2009,08,29,07,03,15.50
2009,08,29,07,04,15.50
2009,08,29,07,05,15.50
2009,08,29,07,06,15.50
2009,08,29,07,07,15.50
2009,08,29,07,08,15.50
2009,08,29,07,09,15.60
2009,08,29,07,10,15.60
2009,08,29,07,11,15.60
2009,08,29,07,12,15.60
2009,08,29,07,13,15.60
2009,08,29,07,14,15.60
2009,08,29,07,15,15.60
2009,08,29,07,16,15.60
2009,08,29,07,17,15.60
2009,08,29,07,18,15.60
2009,08,29,07,19,15.60
2009,08,29,07,20,15.60
2009,08,29,07,21,15.60
2009,08,29,07,22,15.60
2009,08,29,07,23,15.50
2009,08,29,07,24,15.50
2009,08,29,07,25,15.50
2009,08,29,07,26,15.50
2009,08,29,07,27,15.40
2009,08,29,07,28,15.40
2009,08,29,07,29,15.40
2009,08,29,07,30,15.40
2009,08,29,07,31,15.40
2009,08,29,07,32,15.50
2009,08,29,07,33,15.50
2009,08,29,07,34,15.50
2009,08,29,07,35,15.50
2009,08,29,07,36,15.50
2009,08,29,07,37,15.50
2009,08,29,07,38,15.60
2009,08,29,07,39,15.60
2009,08,29,07,40,15.60
2009,08,29,07,41,15.60
2009,08,29,07,42,15.60
2009,08,29,07,43,15.70
2009,08,29,07,44,15.70
2009,08,29,07,45,15.70
2009,08,29,07,46,15.70
2009,08,29,07,47,15.70
2009,08,29,07,48,15.80
2009,08,29,07,49,15.80
2009,08,29,07,50,15.80
2009,08,29,07,51,15.80
2009,08,29,07,52,15.80
2009,08,29,07,53,15.80
2009,08,29,07,54,15.80
2009,08,29,07,55,15.80
2009,08,29,07,56,15.80
2009,08,29,07,57,15.80
2009,08,29,07,58,15.80
2009,08,29,07,59,15.80
2009,08,29,08,00,15.80
2009,08,29,08,01,15.80
2009,08,29,08,02,15.80
2009,08,29,08,03,15.80
2009,08,29,08,04,15.80
2009,08,29,08,05,15.80
2009,08,29,08,06,15.80
2009,08,29,08,07,15.80
2009,08,29,08,08,15.80
2009,08,29,08,09,15.80
2009,08,29,08,10,15.80
2009,08,29,08,11,15.80
2009,08,29,08,12,15.90
2009,08,29,08,13,15.90
2009,08,29,08,14,15.90
2009,08,29,08,15,15.90
2009,08,29,08,16,15.90
2009,08,29,08,17,15.90
2009,08,29,08,18,15.90
2009,08,29,08,19,15.90
2009,08,29,08,20,15.90
2009,08,29,08,21,15.90
2009,08,29,08,22,15.90
2009,08,29,08,23,15.90
2009,08,29,08,24,15.90
2009,08,29,08,25,15.90
2009,08,29,08,26,15.90
2009,08,29,08,27,15.90
2009,08,29,08,28,15.90
2009,08,29,08,29,15.90
2009,08,29,08,30,15.90
2009,08,29,08,31,15.90
2009,08,29,08,32,15.90
2009,08,29,08,33,15.90
2009,08,29,08,34,15.90
2009,08,29,08,35,16.00
2009,08,29,08,36,16.00
2009,08,29,08,37,16.00
2009,08,29,08,38,16.00
2009,08,29,08,39,16.10
2009,08,29,08,40,16.10
2009,08,29,08,41,16.10
2009,08,29,08,42,16.20
2009,08,29,08,43,16.20
2009,08,29,08,44,16.20
2009,08,29,08,45,16.20
2009,08,29,08,46,16.30
2009,08,29,08,47,16.30
2009,08,29,08,48,16.30
2009,08,29,08,49,16.30
2009,08,29,08,50,16.40
2009,08,29,08,51,16.40
2009,08,29,08,52,16.40
2009,08,29,08,53,16.50
2009,08,29,08,54,16.50
2009,08,29,08,55,16.50
2009,08,29,08,56,16.50
2009,08,29,08,57,16.50
2009,08,29,08,58,16.50
2009,08,29,08,59,16.60
2009,08,29,09,00,16.60
2009,08,29,09,01,16.60
2009,08,29,09,02,16.70
2009,08,29,09,03,16.70
2009,08,29,09,04,16.70
2009,08,29,09,05,16.70
2009,08,29,09,06,16.80
2009,08,29,09,07,16.80
2009,08,29,09,08,16.80
2009,08,29,09,09,16.80
2009,08,29,09,10,16.90
2009,08,29,09,11,16.90
2009,08,29,09,12,17.00
2009,08,29,09,13,17.10
2009,08,29,09,14,17.10
2009,08,29,09,15,17.20
2009,08,29,09,16,17.30
2009,08,29,09,17,17.40
2009,08,29,09,18,17.40
2009,08,29,09,19,17.50
2009,08,29,09,20,17.70
2009,08,29,09,21,17.80
2009,08,29,09,22,17.80
2009,08,29,09,23,17.80
2009,08,29,09,24,17.90
2009,08,29,09,25,17.90
2009,08,29,09,26,18.00
2009,08,29,09,27,18.00
2009,08,29,09,28,18.10
2009,08,29,09,29,18.10
2009,08,29,09,30,18.20
2009,08,29,09,31,18.20
2009,08,29,09,32,18.20
2009,08,29,09,33,18.20
2009,08,29,09,34,18.30
2009,08,29,09,35,18.30
2009,08,29,09,36,18.30
2009,08,29,09,37,18.30
2009,08,29,09,38,18.30
2009,08,29,09,39,18.30
2009,08,29,09,40,18.20
2009,08,29,09,41,18.20
2009,08,29,09,42,18.20
2009,08,29,09,43,18.20
2009,08,29,09,44,18.30
2009,08,29,09,45,18.30
2009,08,29,09,46,18.30
2009,08,29,09,47,18.40
2009,08,29,09,48,18.30
2009,08,29,09,49,18.30
2009,08,29,09,50,18.30
2009,08,29,09,51,18.30
2009,08,29,09,52,18.30
2009,08,29,09,53,18.40
2009,08,29,09,54,18.40
2009,08,29,09,55,18.50
2009,08,29,09,56,18.50
2009,08,29,09,57,18.60
2009,08,29,09,58,18.70
2009,08,29,09,59,18.80
2009,08,29,10,00,18.80
2009,08,29,10,01,18.90
2009,08,29,10,02,19.00
2009,08,29,10,03,19.10
2009,08,29,10,04,19.10
2009,08,29,10,05,19.20
2009,08,29,10,06,19.20
2009,08,29,10,07,19.20
2009,08,29,10,08,19.30
2009,08,29,10,09,19.40
2009,08,29,10,10,19.40
2009,08,29,10,11,19.40
2009,08,29,10,12,19.40
2009,08,29,10,13,19.50
2009,08,29,10,14,19.50
2009,08,29,10,15,19.60
2009,08,29,10,16,19.70
2009,08,29,10,17,19.80
2009,08,29,10,18,19.80
2009,08,29,10,19,19.90
2009,08,29,10,20,19.90
2009,08,29,10,21,19.90
2009,08,29,10,22,20.00
2009,08,29,10,23,20.00
2009,08,29,10,24,20.10
2009,08,29,10,25,20.10
2009,08,29,10,26,20.20
2009,08,29,10,27,20.20
2009,08,29,10,28,20.20
2009,08,29,10,29,20.20
2009,08,29,10,30,20.10
2009,08,29,10,31,20.20
2009,08,29,10,32,20.30
2009,08,29,10,33,20.40
2009,08,29,10,34,20.50
2009,08,29,10,35,20.60
2009,08,29,10,36,20.60
2009,08,29,10,37,20.50
2009,08,29,10,38,20.40
2009,08,29,10,39,20.30
2009,08,29,10,40,20.20
2009,08,29,10,41,20.20
2009,08,29,10,42,20.20
2009,08,29,10,43,20.20
2009,08,29,10,44,20.10
2009,08,29,10,45,20.10
2009,08,29,10,46,20.10
2009,08,29,10,47,20.10
2009,08,29,10,48,20.00
2009,08,29,10,49,20.00
2009,08,29,10,50,19.90
2009,08,29,10,51,19.90
2009,08,29,10,52,19.80
2009,08,29,10,53,19.80
2009,08,29,10,54,19.70
2009,08,29,10,55,19.70
2009,08,29,10,56,19.70
2009,08,29,10,57,19.70
2009,08,29,10,58,19.70
2009,08,29,10,59,19.70
2009,08,29,11,00,19.80
2009,08,29,11,01,19.90
2009,08,29,11,02,20.10
2009,08,29,11,03,20.20
2009,08,29,11,04,20.30
2009,08,29,11,05,20.30
2009,08,29,11,06,20.30
2009,08,29,11,07,20.30
2009,08,29,11,08,20.40
2009,08,29,11,09,20.50
2009,08,29,11,10,20.60
2009,08,29,11,11,20.60
2009,08,29,11,12,20.50
2009,08,29,11,13,20.50
2009,08,29,11,14,20.50
2009,08,29,11,15,20.60
2009,08,29,11,16,20.70
2009,08,29,11,17,20.70
2009,08,29,11,18,20.70
2009,08,29,11,19,20.70
2009,08,29,11,20,20.60
2009,08,29,11,21,20.50
2009,08,29,11,22,20.40
2009,08,29,11,23,20.40
2009,08,29,11,24,20.50
2009,08,29,11,25,20.60
2009,08,29,11,26,20.60
2009,08,29,11,27,20.60
2009,08,29,11,28,20.70
2009,08,29,11,29,20.80
2009,08,29,11,30,20.80
2009,08,29,11,31,20.80
2009,08,29,11,32,20.80
2009,08,29,11,33,20.90
2009,08,29,11,34,20.90
2009,08,29,11,35,21.00
2009,08,29,11,36,21.00
2009,08,29,11,37,21.10
2009,08,29,11,38,21.10
2009,08,29,11,39,21.00
2009,08,29,11,40,21.00
2009,08,29,11,41,21.00
2009,08,29,11,42,20.80
2009,08,29,11,43,20.70
2009,08,29,11,44,20.60
2009,08,29,11,45,20.60
2009,08,29,11,46,20.50
2009,08,29,11,47,20.50
2009,08,29,11,48,20.50
2009,08,29,11,49,20.50
2009,08,29,11,50,20.50
2009,08,29,11,51,20.60
2009,08,29,11,52,20.50
2009,08,29,11,53,20.60
2009,08,29,11,54,20.50
2009,08,29,11,55,20.60
2009,08,29,11,56,20.60
2009,08,29,11,57,20.70
2009,08,29,11,58,20.70
2009,08,29,11,59,20.70
2009,08,29,12,00,20.70
2009,08,29,12,01,20.70
2009,08,29,12,02,20.60
2009,08,29,12,03,20.50
2009,08,29,12,04,20.30
2009,08,29,12,05,20.30
2009,08,29,12,06,20.10
2009,08,29,12,07,20.00
2009,08,29,12,08,20.00
2009,08,29,12,09,20.00
2009,08,29,12,10,19.90
2009,08,29,12,11,19.90
2009,08,29,12,12,19.90
2009,08,29,12,13,19.90
2009,08,29,12,14,19.90
2009,08,29,12,15,19.90
2009,08,29,12,16,19.90
2009,08,29,12,17,19.90
2009,08,29,12,18,19.90
2009,08,29,12,19,19.90
2009,08,29,12,20,19.90
2009,08,29,12,21,19.90
2009,08,29,12,22,20.00
2009,08,29,12,23,20.10
2009,08,29,12,24,20.10
2009,08,29,12,25,20.10
2009,08,29,12,26,20.10
2009,08,29,12,27,20.10
2009,08,29,12,28,20.10
2009,08,29,12,29,20.20
2009,08,29,12,30,20.20
2009,08,29,12,31,20.30
2009,08,29,12,32,20.30
2009,08,29,12,33,20.30
2009,08,29,12,34,20.40
2009,08,29,12,35,20.40
2009,08,29,12,36,20.50
2009,08,29,12,37,20.50
2009,08,29,12,38,20.60
2009,08,29,12,39,20.60
2009,08,29,12,40,20.50
2009,08,29,12,41,20.50
2009,08,29,12,42,20.50
2009,08,29,12,43,20.50
2009,08,29,12,44,20.40
2009,08,29,12,45,20.40
2009,08,29,12,46,20.40
2009,08,29,12,47,20.40
2009,08,29,12,48,20.50
2009,08,29,12,49,20.50
2009,08,29,12,50,20.50
2009,08,29,12,51,20.60
2009,08,29,12,52,20.60
2009,08,29,12,53,20.60
2009,08,29,12,54,20.70
2009,08,29,12,55,20.70
2009,08,29,12,56,20.80
2009,08,29,12,57,20.80
2009,08,29,12,58,20.90
2009,08,29,12,59,21.10
2009,08,29,13,00,21.20
2009,08,29,13,01,21.20
2009,08,29,13,02,21.20
2009,08,29,13,03,21.30
2009,08,29,13,04,21.40
2009,08,29,13,05,21.40
2009,08,29,13,06,21.50
2009,08,29,13,07,21.60
2009,08,29,13,08,21.70
2009,08,29,13,09,21.80
2009,08,29,13,10,21.80
2009,08,29,13,11,21.70
2009,08,29,13,12,21.60
2009,08,29,13,13,21.60
2009,08,29,13,14,21.50
2009,08,29,13,15,21.50
2009,08,29,13,16,21.40
2009,08,29,13,17,21.40
2009,08,29,13,18,21.40
2009,08,29,13,19,21.40
2009,08,29,13,20,21.40
2009,08,29,13,21,21.30
2009,08,29,13,22,21.20
2009,08,29,13,23,21.10
2009,08,29,13,24,21.10
2009,08,29,13,25,21.10
2009,08,29,13,26,21.10
2009,08,29,13,27,21.10
2009,08,29,13,28,21.10
2009,08,29,13,29,21.10
2009,08,29,13,30,21.20
2009,08,29,13,31,21.10
2009,08,29,13,32,21.10
2009,08,29,13,33,21.10
2009,08,29,13,34,21.20
2009,08,29,13,35,21.30
2009,08,29,13,36,21.50
2009,08,29,13,37,21.60
2009,08,29,13,38,21.70
2009,08,29,13,39,21.70
2009,08,29,13,40,21.80
2009,08,29,13,41,21.90
2009,08,29,13,42,22.00
2009,08,29,13,43,22.10
2009,08,29,13,44,22.10
2009,08,29,13,45,22.20
2009,08,29,13,46,22.30
2009,08,29,13,47,22.30
2009,08,29,13,48,22.40
2009,08,29,13,49,22.40
2009,08,29,13,50,22.40
2009,08,29,13,51,22.40
2009,08,29,13,52,22.40
2009,08,29,13,53,22.40
2009,08,29,13,54,22.50
2009,08,29,13,55,22.40
2009,08,29,13,56,22.30
2009,08,29,13,57,22.30
2009,08,29,13,58,22.30
2009,08,29,13,59,22.40
2009,08,29,14,00,22.40
2009,08,29,14,01,22.40
2009,08,29,14,02,22.50
2009,08,29,14,03,22.60
2009,08,29,14,04,22.60
2009,08,29,14,05,22.60
2009,08,29,14,06,22.50
2009,08,29,14,07,22.40
2009,08,29,14,08,22.30
2009,08,29,14,09,22.20
2009,08,29,14,10,22.10
2009,08,29,14,11,22.00
2009,08,29,14,12,21.90
2009,08,29,14,13,22.00
2009,08,29,14,14,22.10
2009,08,29,14,15,22.20
2009,08,29,14,16,22.20
2009,08,29,14,17,22.30
2009,08,29,14,18,22.30
2009,08,29,14,19,22.20
2009,08,29,14,20,22.10
2009,08,29,14,21,22.10
2009,08,29,14,22,22.00
2009,08,29,14,23,22.10
2009,08,29,14,24,22.30
2009,08,29,14,25,22.40
2009,08,29,14,26,22.50
2009,08,29,14,27,22.60
2009,08,29,14,28,22.60
2009,08,29,14,29,22.70
2009,08,29,14,30,22.70
2009,08,29,14,31,22.60
2009,08,29,14,32,22.70
2009,08,29,14,33,22.70
2009,08,29,14,34,22.80
2009,08,29,14,35,22.80
2009,08,29,14,36,22.80
2009,08,29,14,37,22.90
2009,08,29,14,38,22.90
2009,08,29,14,39,22.90
2009,08,29,14,40,22.80
2009,08,29,14,41,22.70
2009,08,29,14,42,22.60
2009,08,29,14,43,22.60
2009,08,29,14,44,22.60
2009,08,29,14,45,22.70
2009,08,29,14,46,22.80
2009,08,29,14,47,22.90
2009,08,29,14,48,22.90
2009,08,29,14,49,22.90
2009,08,29,14,50,22.90
2009,08,29,14,51,22.90
2009,08,29,14,52,22.90
2009,08,29,14,53,22.90
2009,08,29,14,54,22.80
2009,08,29,14,55,22.60
2009,08,29,14,56,22.50
2009,08,29,14,57,22.50
2009,08,29,14,58,22.50
2009,08,29,14,59,22.40
2009,08,29,15,00,22.40
2009,08,29,15,01,22.30
2009,08,29,15,02,22.20
2009,08,29,15,03,22.20
2009,08,29,15,04,22.30
2009,08,29,15,05,22.40
2009,08,29,15,06,22.40
2009,08,29,15,07,22.50
2009,08,29,15,08,22.50
2009,08,29,15,09,22.50
2009,08,29,15,10,22.50
2009,08,29,15,11,22.50
2009,08,29,15,12,22.40
2009,08,29,15,13,22.50
2009,08,29,15,14,22.60
2009,08,29,15,15,22.60
2009,08,29,15,16,22.70
2009,08,29,15,17,22.80
2009,08,29,15,18,22.80
2009,08,29,15,19,22.70
2009,08,29,15,20,22.70
2009,08,29,15,21,22.40
2009,08,29,15,22,22.30
2009,08,29,15,23,22.30
2009,08,29,15,24,22.40
2009,08,29,15,25,22.40
2009,08,29,15,26,22.30
2009,08,29,15,27,22.20
2009,08,29,15,28,22.20
2009,08,29,15,29,22.10
2009,08,29,15,30,22.10
2009,08,29,15,31,22.00
2009,08,29,15,32,21.90
2009,08,29,15,33,21.70
2009,08,29,15,34,21.60
2009,08,29,15,35,21.60
2009,08,29,15,36,21.60
2009,08,29,15,37,21.70
2009,08,29,15,38,21.80
2009,08,29,15,39,21.80
2009,08,29,15,40,21.90
2009,08,29,15,41,21.80
2009,08,29,15,42,21.80
2009,08,29,15,43,21.70
2009,08,29,15,44,21.60
2009,08,29,15,45,21.60
2009,08,29,15,46,21.60
2009,08,29,15,47,21.60
2009,08,29,15,48,21.70
2009,08,29,15,49,21.80
2009,08,29,15,50,21.80
2009,08,29,15,51,21.80
2009,08,29,15,52,21.70
2009,08,29,15,53,21.60
2009,08,29,15,54,21.60
2009,08,29,15,55,21.60
2009,08,29,15,56,21.50
2009,08,29,15,57,21.50
2009,08,29,15,58,21.40
2009,08,29,15,59,21.40
2009,08,29,16,00,21.30
2009,08,29,16,01,21.40
2009,08,29,16,02,21.40
2009,08,29,16,03,21.40
2009,08,29,16,04,21.40
2009,08,29,16,05,21.40
2009,08,29,16,06,21.50
2009,08,29,16,07,21.50
2009,08,29,16,08,21.60
2009,08,29,16,09,21.60
2009,08,29,16,10,21.50
2009,08,29,16,11,21.50
2009,08,29,16,12,21.50
2009,08,29,16,13,21.60
2009,08,29,16,14,21.70
2009,08,29,16,15,21.70
2009,08,29,16,16,21.70
2009,08,29,16,17,21.60
2009,08,29,16,18,21.60
2009,08,29,16,19,21.50
2009,08,29,16,20,21.50
2009,08,29,16,21,21.40
2009,08,29,16,22,21.30
2009,08,29,16,23,21.20
2009,08,29,16,24,21.30
2009,08,29,16,25,21.30
2009,08,29,16,26,21.30
2009,08,29,16,27,21.20
2009,08,29,16,28,21.20
2009,08,29,16,29,21.30
2009,08,29,16,30,21.30
2009,08,29,16,31,21.30
2009,08,29,16,32,21.20
2009,08,29,16,33,21.10
2009,08,29,16,34,21.00
2009,08,29,16,35,20.90
2009,08,29,16,36,21.00
2009,08,29,16,37,21.00
2009,08,29,16,38,20.90
2009,08,29,16,39,20.80
2009,08,29,16,40,20.80
2009,08,29,16,41,20.90
2009,08,29,16,42,20.90
2009,08,29,16,43,20.90
2009,08,29,16,44,20.80
2009,08,29,16,45,20.70
2009,08,29,16,46,20.60
2009,08,29,16,47,20.50
2009,08,29,16,48,20.40
2009,08,29,16,49,20.40
2009,08,29,16,50,20.40
2009,08,29,16,51,20.40
2009,08,29,16,52,20.40
2009,08,29,16,53,20.30
2009,08,29,16,54,20.30
2009,08,29,16,55,20.30
2009,08,29,16,56,20.20
2009,08,29,16,57,20.20
2009,08,29,16,58,20.20
2009,08,29,16,59,20.20
2009,08,29,17,00,20.20
2009,08,29,17,01,20.30
2009,08,29,17,02,20.30
2009,08,29,17,03,20.30
2009,08,29,17,04,20.30
2009,08,29,17,05,20.20
2009,08,29,17,06,20.20
2009,08,29,17,07,20.20
2009,08,29,17,08,20.20
2009,08,29,17,09,20.20
2009,08,29,17,10,20.10
2009,08,29,17,11,20.10
2009,08,29,17,12,20.10
2009,08,29,17,13,20.10
2009,08,29,17,14,20.10
2009,08,29,17,15,20.20
2009,08,29,17,16,20.20
2009,08,29,17,17,20.20
2009,08,29,17,18,20.20
2009,08,29,17,19,20.10